Welcome to the New NWS' Forecast!
Most changes are behind the scenes, but click here for differences you might notice.
Latest weather observations around

Santa Monica, Santa Monica Municipal Airport (KSMO)

Using English Units (Switch to International System of Units)
Date/ Time (PDT) Wind (mph) Vis. (mi) Weather Sky Cond. Temp (°F) Rel. Humidity Wind Chill (°F) Heat Index (°F) Pressure Precip. (in)
Air Dwpt 6 hour Altimeter (inHg) Sea level (inHg) 1 hr 3 hr 6 hr
Max Min
Jul 15 14:51 SW 9 10 Clear CLR 76 65     69%   76 29.92 29.91      
Jul 15 13:51 7 10 Clear CLR 75 65     71%   76 29.95 29.94      
Jul 15 12:51 WSW 9 10 Clear CLR 75 65     71%   76 29.96 29.95      
Jul 15 11:51 SSW 9 10 Clear CLR 76 65     69%   76 29.97 29.96      
Jul 15 10:51 WSW 6 10 Clear CLR 74 65     74%   74 29.97 29.96      
Jul 15 09:51 SW 5 10 Mostly Clear FEW010 73 65     76%   74 29.96 29.95      
Jul 15 08:51 SSW 7 10 Clear CLR 73 65     76%   74 29.97 29.96      
Jul 15 07:51 Calm 10 Clear CLR 72 64     76%   72 29.96 29.95      
Jul 15 06:51 Calm 10 Clear CLR 69 64     84%     29.95 29.94      
Jul 15 05:51 Calm 10 Clear CLR 68 63     84%     29.94 29.93      
Jul 15 04:51 Calm 10 Clear CLR 69 64     84%     29.94 29.93      
Jul 15 03:51 Calm 10 Clear CLR 68 63     84%     29.94 29.93      
Jul 15 02:51 Calm 10 Clear CLR 69 64     84%     29.94 29.93      
Jul 15 01:51 Calm 10 Mostly Clear FEW009 69 65     87%     29.94 29.94      
Jul 15 01:39 WSW 3 10 Mostly Clear FEW009 69 64     84%     29.95        
Jul 15 01:07 S 5 10 Mostly Cloudy BKN009 69 64     84%     29.96        
Jul 15 00:51 Calm 10 Partly Cloudy SCT009 69 64     84%     29.96 29.95      
Jul 14 23:51 Calm 10 Mostly Clear FEW009 69 63     81%     29.96 29.95      
Jul 14 22:51 Calm 10 Mostly Clear FEW010 69 63     81%     29.95 29.95      
Jul 14 21:51 SW 6 10 Clear CLR 69 64     84%     29.95 29.94      
Jul 14 20:51 SSW 6 10 Clear CLR 70 64     81%     29.92 29.92      
Jul 14 19:51 SW 8 10 Clear CLR 70 64     81%     29.91 29.91      
Jul 14 18:51 WSW 8 10 Clear CLR 71 63     76%   71 29.9 29.89      
Jul 14 17:51 WSW 9 10 Clear CLR 73 62     68%   73 29.9 29.9      
Jul 14 16:51 WSW 13 10 Clear CLR 74 63     69%   74 29.91 29.9      
Jul 14 15:51 WSW 8 10 Clear CLR 74 64     71%   74 29.92 29.91      
Jul 14 14:51 SW 11 10 Clear CLR 75 65     71%   76 29.93 29.92      
Jul 14 13:51 SW 10 10 Clear CLR 76 64     67%   76 29.94 29.94      
Jul 14 12:51 SW 9 10 Clear CLR 74 61     64%   74 29.97 29.96      
Jul 14 11:51 SW 8 10 Clear CLR 75 62     64%   75 29.99 29.98      
Jul 14 10:51 WSW 6 10 Clear CLR 74 63     69%   74 30 29.99      
Jul 14 09:51 S 6 10 Clear CLR 72 64     76%   72 30.01 30      
Jul 14 08:51 WSW 3 10 Partly Cloudy SCT011 70 64     81%     30.01 30.01      
Jul 14 07:51 Calm 10 Partly Cloudy SCT011 69 64     84%     30.01 30      
Jul 14 06:51 Calm 10 Clear CLR 67 63     87%     30 29.99      
Jul 14 04:51 Calm 10 Mostly Clear FEW009 67 63     87%     29.98 29.98      
Jul 14 04:41 Calm 10 Mostly Clear FEW009 67 63     87%     29.99        
Jul 14 04:12 Calm 10 Mostly Cloudy BKN008 67 63     87%     29.99        
Jul 14 04:04 Calm 10 Partly Cloudy SCT008 67 63     87%     29.99        
Jul 14 03:51 Calm 10 Clear CLR 68 63     84%     29.99 29.98      
Jul 14 03:33 WSW 3 10 Partly Cloudy SCT009 68 63     84%     29.99        
Jul 14 03:12 Calm 10 Mostly Cloudy BKN009 68 63     84%     29.99        
Jul 14 02:51 Calm 10 Mostly Clear FEW009 68 63     84%     29.99 29.98      
Jul 14 02:49 Calm 10 Mostly Clear FEW009 68 63     83%     29.99        
Jul 14 00:51 SW 3 10 Clear CLR 68 63     84%     30.01 30.01      
Jul 13 22:51 SW 3 10 Clear CLR 68 62     81%     30.01 30.01      
Jul 13 21:51 WSW 5 10 Clear CLR 68 62     81%     30.01 30.01      
Jul 13 20:51 SW 7 10 Clear CLR 68 62     81%     30 29.99      
Jul 13 19:51 SW 9 10 Mostly Clear FEW011 69 63     81%     29.98 29.97      
Jul 13 18:51 WSW 9 10 Mostly Clear FEW010 70 63     78%     29.96 29.95      
Jul 13 17:51 WSW 11 10 Clear CLR 72 63     73%   72 29.95 29.95      
Jul 13 16:51 SW 11 10 Clear CLR 72 63     73%   72 29.96 29.95      
Jul 13 15:51 SW 10 10 Clear CLR 73 63     71%   73 29.97 29.97      
Jul 13 14:51 WSW 14 10 Clear CLR 73 63     71%   73 29.99 29.98      
Jul 13 13:51 SW 11 10 Clear CLR 75 63     66%   75 30 29.99      
Jul 13 12:51 SSW 13 10 Mostly Clear FEW010 73 64     73%   73 30.01 30.01      
Jul 13 11:51 WSW 8 10 Clear CLR 73 64     73%   73 30.02 30.02      
Jul 13 10:51 SW 8 10 Partly Cloudy SCT010 73 64     73%   73 30.03 30.02      
Jul 13 09:51 7 10 Mostly Clear FEW008 72 64     76%   72 30.03 30.02      
Jul 13 08:51 SW 8 10 Mostly Clear FEW008 71 64     79%   72 30.02 30.01      
Jul 13 07:51 WSW 5 10 Clear CLR 69 63     81%     30.01 30      
Jul 13 06:51 WNW 5 10 Mostly Clear FEW008 68 64     87%     30 30      
Jul 13 06:23 Calm 10 Mostly Clear FEW007 67 63     87%     30        
Jul 13 05:51 Calm 9 Clear CLR 67 63     87%     29.99 29.98      
Jul 13 04:51 Calm 10 Clear CLR 68 64     87%     29.99 29.98      
Jul 13 03:51 SW 3 10 Clear CLR 68 64     87%     29.99 29.98      
Jul 13 02:51 Calm 10 Clear CLR 68 64     87%     30 29.99      
Jul 13 01:51 SW 3 10 Clear CLR 68 63     84%     30.01 30      
Jul 13 01:29 W 5 10 Mostly Clear FEW009 68 63     84%     30.01        
Jul 13 00:51 WSW 6 10 Mostly Clear FEW010 68 64     87%     30.01 30.01      
Jul 13 00:44 WSW 6 10 Partly Cloudy SCT010 68 64     87%     30.01        
Jul 13 00:27 SW 5 10 Mostly Cloudy BKN010 69 64     84%     30.02        
Jul 13 00:06 WSW 5 10 Mostly Cloudy BKN009 69 64     84%     30.02        
Jul 12 23:51 SW 3 10 Mostly Clear FEW008 69 64     84%     30.01 30.01      
Jul 12 22:58 SW 5 10 Mostly Clear FEW008 69 64     84%     30.01        
Jul 12 22:51 Calm 10 Clear CLR 68 64     87%     30.01 30      
Jul 12 22:25 WSW 5 10 Partly Cloudy SCT009 69 64     84%     30.01        
Jul 12 21:51 WSW 5 10 Mostly Cloudy BKN009 69 64     84%     30.01 30      
Jul 12 21:09 SW 7 10 Mostly Cloudy BKN009 69 64     84%     29.99        
Jul 12 20:51 SW 8 10 Partly Cloudy SCT009 70 65     84%     29.98 29.98      
Jul 12 20:14 SW 7 10 Mostly Clear FEW010 70 65     84%     29.97        
Jul 12 19:51 WSW 8 10 Clear CLR 71 65     81%   72 29.96 29.96      
Jul 12 17:51 SW 11 10 Clear CLR 73 62     68%   73 29.94 29.93      
Jul 12 16:51 WSW 13 10 Clear CLR 74 63     69%   74 29.93 29.93      
Jul 12 15:51 WSW 10 10 Clear CLR 75 64     69%   75 29.94 29.93      
May 15 07:51 SE 3 10 Mostly Cloudy BKN015 59 52     78%     30.04 30.04      
May 13 01:51 3 10 Cloudy FEW025 BKN032 OVC050 59 51     75%     30.01 30.01      
Notice The following observation data may not be complete
May 12 05:04   6 Light Rain and Fog/Mist FEW008 OVC020          %         0    
May 12 00:51 E 6 10 Cloudy BKN028 OVC044 59 53     81%     29.88 29.88      
May 11 18:51 SSW 6 10 Cloudy OVC026 60 54     80%     29.82 29.82      
May 11 12:51 3 10 Cloudy OVC023 61 53     75%     29.87 29.87      
Jun 11 14:51 WSW 11 10 Mostly Clear FEW022 67 54     63%     29.92 29.92      
Jun 11 03:51 SSW 3 10 Cloudy OVC013 62 57     84%     29.86 29.85      
Jun 10 14:51 WSW 8 10 Mostly Cloudy BKN016 67 58     73%     29.89 29.88      
Jun 09 19:51 SW 10 10 Partly Cloudy SCT009 64 60     87%     29.9 29.89      
Notice The following observation data may not be complete
Jun 09 09:51   10 Clear CLR          %              
Jun 09 03:42 Calm 10 Partly Cloudy SCT013 59 56     90%     29.94        
Jun 08 11:29 WSW 7 9 Cloudy BKN008 OVC013 62 59     90%     30.04        
Jun 08 10:48 WSW 7 10 Cloudy BKN008 OVC015 63 61     94%     30.03   0    
Jun 07 23:47 SW 7 4 Light Rain and Fog/Mist OVC003 61 61     100%     29.99   0    
Jun 07 09:51 SW 6 8 Cloudy FEW008 OVC010 63 59     87%     29.96 29.96